• In Hungary
  • List of Countries
  • For 7 days
  • Water Temperature
  • Satellite Maps
  • Weather Map
  • News
  • Weather Widgets
  • user-avatar
    Login

    Hourly Weather Peremyl'

    Today, 20 January, Saturday

    Time Temperature Precipitation Wind Pressure Humidity
    00:00 -4°C° 0 mm 5 mps 738 mmHg 88%
    01:00 -4°C° 0 mm 5 mps 739 mmHg 89%
    02:00 -5°C° 0 mm 5 mps 739 mmHg 90%
    03:00 -4°C° 0 mm 4 mps 739 mmHg 90%
    04:00 -4°C° 0 mm 4 mps 739 mmHg 91%
    05:00 -4°C° 0 mm 4 mps 739 mmHg 91%
    06:00 -4°C° 0 mm 3 mps 739 mmHg 92%
    07:00 -5°C° 0 mm 3 mps 740 mmHg 92%
    08:00 -5°C° 0 mm 3 mps 740 mmHg 93%
    09:00 -5°C° 0 mm 3 mps 740 mmHg 92%
    10:00 -4°C° 0 mm 3 mps 740 mmHg 90%
    11:00 -2°C° 0 mm 3 mps 740 mmHg 89%
    12:00 -2°C° 0 mm 3 mps 740 mmHg 88%
    13:00 -1°C° 0 mm 3 mps 740 mmHg 87%
    14:00 -1°C° 0 mm 3 mps 740 mmHg 85%
    15:00 -2°C° 0 mm 2 mps 740 mmHg 87%
    16:00 -2°C° 0 mm 2 mps 739 mmHg 89%
    17:00 -3°C° 0 mm 2 mps 739 mmHg 91%
    18:00 -3°C° 0 mm 2 mps 739 mmHg 91%
    19:00 -3°C° 0 mm 2 mps 739 mmHg 91%
    20:00 -3°C° 0 mm 2 mps 739 mmHg 91%
    21:00 -3°C° 0.3 mm 2 mps 739 mmHg 92%
    22:00 -3°C° 0.3 mm 2 mps 739 mmHg 92%
    23:00 -4°C° 0.3 mm 3 mps 739 mmHg 93%

    Tomorrow, 21 January, Sunday

    Time Temperature Precipitation Wind Pressure Humidity
    00:00 -3°C° 0.2 mm 2 mps 738 mmHg 92%
    01:00 -3°C° 0.2 mm 2 mps 738 mmHg 92%
    02:00 -3°C° 0.2 mm 2 mps 738 mmHg 91%
    03:00 -3°C° 0 mm 2 mps 738 mmHg 91%
    04:00 -4°C° 0 mm 2 mps 738 mmHg 92%
    05:00 -4°C° 0 mm 2 mps 738 mmHg 92%
    06:00 -4°C° 0 mm 2 mps 738 mmHg 92%
    07:00 -4°C° 0 mm 2 mps 738 mmHg 92%
    08:00 -4°C° 0 mm 2 mps 738 mmHg 93%
    09:00 -3°C° 0 mm 2 mps 738 mmHg 92%
    10:00 -3°C° 0 mm 2 mps 739 mmHg 91%
    11:00 -2°C° 0 mm 2 mps 739 mmHg 90%
    12:00 -1°C° 0.1 mm 2 mps 739 mmHg 90%
    13:00 -1°C° 0.1 mm 2 mps 739 mmHg 90%
    14:00 +2°C° 0.1 mm 1 mps 738 mmHg 90%
    15:00 +1°C° 0.1 mm 1 mps 739 mmHg 90%
    16:00 +1°C° 0.1 mm 1 mps 739 mmHg 90%
    17:00 0°C° 0.1 mm 1 mps 739 mmHg 90%
    18:00 -2°C° 0.2 mm 2 mps 739 mmHg 90%
    19:00 -2°C° 0.2 mm 2 mps 739 mmHg 91%
    20:00 -2°C° 0.2 mm 2 mps 739 mmHg 91%
    21:00 -2°C° 0.3 mm 2 mps 739 mmHg 92%
    22:00 -2°C° 0.3 mm 3 mps 739 mmHg 92%
    23:00 -2°C° 0.3 mm 3 mps 740 mmHg 93%

    Day after tomorrow, 22 January, Monday

    Time Temperature Precipitation Wind Pressure Humidity
    00:00 -4°C° 0.4 mm 3 mps 740 mmHg 93%
    01:00 -4°C° 0.4 mm 3 mps 740 mmHg 94%
    02:00 -4°C° 0.4 mm 3 mps 740 mmHg 94%
    03:00 -4°C° 0.2 mm 3 mps 740 mmHg 94%
    04:00 -4°C° 0.2 mm 3 mps 740 mmHg 95%
    05:00 -4°C° 0.2 mm 3 mps 741 mmHg 95%
    06:00 -5°C° 0.2 mm 3 mps 741 mmHg 95%
    07:00 -5°C° 0.2 mm 3 mps 742 mmHg 95%
    08:00 -5°C° 0.2 mm 3 mps 742 mmHg 95%
    09:00 -4°C° 0.1 mm 3 mps 743 mmHg 94%
    10:00 -4°C° 0.1 mm 3 mps 743 mmHg 94%
    11:00 -4°C° 0.1 mm 3 mps 744 mmHg 93%
    12:00 -4°C° 0.1 mm 3 mps 744 mmHg 92%
    13:00 -2°C° 0.1 mm 3 mps 744 mmHg 92%
    14:00 -2°C° 0.1 mm 2 mps 745 mmHg 91%
    15:00 -2°C° 0.1 mm 2 mps 745 mmHg 92%
    16:00 -3°C° 0.1 mm 2 mps 745 mmHg 93%
    17:00 -3°C° 0.1 mm 2 mps 746 mmHg 94%
    18:00 -3°C° 0 mm 2 mps 746 mmHg 95%
    19:00 -4°C° 0 mm 2 mps 747 mmHg 95%
    20:00 -4°C° 0 mm 2 mps 747 mmHg 96%
    21:00 -5°C° 0 mm 2 mps 747 mmHg 96%
    22:00 -5°C° 0 mm 2 mps 748 mmHg 96%
    23:00 -3°C° 0 mm 1 mps 748 mmHg 96%

    23 January, Tuesday

    Time Temperature Precipitation Wind Pressure Humidity
    00:00 -5°C° 0 mm 2 mps 748 mmHg 96%
    01:00 -6°C° 0 mm 2 mps 748 mmHg 96%
    02:00 -6°C° 0 mm 2 mps 749 mmHg 96%
    03:00 -6°C° 0 mm 2 mps 749 mmHg 95%
    04:00 -6°C° 0 mm 2 mps 749 mmHg 95%
    05:00 -6°C° 0 mm 2 mps 750 mmHg 95%
    06:00 -7°C° 0 mm 2 mps 750 mmHg 95%
    07:00 -7°C° 0 mm 2 mps 751 mmHg 95%
    08:00 -7°C° 0 mm 2 mps 752 mmHg 94%
    09:00 -7°C° 0 mm 2 mps 752 mmHg 92%
    10:00 -6°C° 0 mm 2 mps 753 mmHg 91%
    11:00 -6°C° 0 mm 2 mps 754 mmHg 89%
    12:00 -5°C° 0 mm 2 mps 754 mmHg 88%
    13:00 -5°C° 0 mm 2 mps 754 mmHg 87%
    14:00 -4°C° 0 mm 2 mps 754 mmHg 86%
    15:00 -5°C° 0 mm 2 mps 755 mmHg 87%
    16:00 -6°C° 0 mm 2 mps 755 mmHg 88%
    17:00 -7°C° 0 mm 2 mps 755 mmHg 90%
    18:00 -7°C° 0 mm 2 mps 755 mmHg 89%
    19:00 -8°C° 0 mm 2 mps 756 mmHg 89%
    20:00 -8°C° 0 mm 2 mps 756 mmHg 89%
    21:00 -8°C° 0 mm 2 mps 756 mmHg 88%
    22:00 -8°C° 0 mm 2 mps 756 mmHg 87%
    23:00 -9°C° 0 mm 3 mps 756 mmHg 87%

    24 January, Wednesday

    Time Temperature Precipitation Wind Pressure Humidity
    00:00 -9°C° 0 mm 3 mps 756 mmHg 86%
    01:00 -9°C° 0 mm 3 mps 756 mmHg 85%
    02:00 -9°C° 0 mm 3 mps 756 mmHg 84%
    03:00 -9°C° 0 mm 3 mps 756 mmHg 84%
    04:00 -9°C° 0 mm 3 mps 756 mmHg 84%
    05:00 -9°C° 0 mm 3 mps 756 mmHg 84%
    06:00 -9°C° 0 mm 3 mps 756 mmHg 84%
    07:00 -9°C° 0 mm 3 mps 756 mmHg 84%
    08:00 -9°C° 0 mm 3 mps 756 mmHg 84%
    09:00 -7°C° 0 mm 3 mps 756 mmHg 83%
    10:00 -7°C° 0 mm 4 mps 756 mmHg 82%
    11:00 -5°C° 0 mm 4 mps 756 mmHg 80%
    12:00 -4°C° 0 mm 4 mps 756 mmHg 80%
    13:00 -3°C° 0 mm 4 mps 756 mmHg 80%
    14:00 -2°C° 0 mm 3 mps 756 mmHg 80%
    15:00 -2°C° 0 mm 3 mps 756 mmHg 82%
    16:00 -4°C° 0 mm 3 mps 756 mmHg 83%
    17:00 -5°C° 0 mm 3 mps 756 mmHg 85%
    18:00 -5°C° 0 mm 3 mps 756 mmHg 85%
    19:00 -5°C° 0 mm 3 mps 756 mmHg 85%
    20:00 -5°C° 0 mm 3 mps 756 mmHg 84%
    21:00 -5°C° 0 mm 3 mps 755 mmHg 84%
    22:00 -5°C° 0 mm 3 mps 755 mmHg 85%
    23:00 -5°C° 0 mm 3 mps 755 mmHg 85%

    25 January, Thursday

    Time Temperature Precipitation Wind Pressure Humidity
    00:00 -5°C° 0 mm 3 mps 755 mmHg 85%
    01:00 -6°C° 0 mm 3 mps 755 mmHg 86%
    02:00 -6°C° 0 mm 3 mps 755 mmHg 86%
    03:00 -6°C° 0 mm 3 mps 755 mmHg 86%
    04:00 -6°C° 0 mm 3 mps 754 mmHg 86%
    05:00 -6°C° 0 mm 3 mps 754 mmHg 86%
    06:00 -6°C° 0 mm 3 mps 754 mmHg 86%
    07:00 -6°C° 0 mm 3 mps 754 mmHg 85%
    08:00 -6°C° 0 mm 3 mps 754 mmHg 85%
    09:00 -5°C° 0 mm 4 mps 754 mmHg 84%
    10:00 -4°C° 0 mm 4 mps 753 mmHg 82%
    11:00 -3°C° 0 mm 4 mps 753 mmHg 80%
    12:00 -2°C° 0 mm 4 mps 753 mmHg 81%
    13:00 -2°C° 0 mm 4 mps 753 mmHg 81%
    14:00 -1°C° 0 mm 4 mps 752 mmHg 82%
    15:00 -2°C° 0 mm 4 mps 752 mmHg 82%
    16:00 -2°C° 0 mm 4 mps 752 mmHg 82%
    17:00 -3°C° 0 mm 4 mps 751 mmHg 82%
    18:00 -3°C° 0 mm 4 mps 751 mmHg 82%
    19:00 -3°C° 0 mm 4 mps 751 mmHg 82%
    20:00 -4°C° 0 mm 4 mps 751 mmHg 82%
    21:00 -4°C° 0 mm 4 mps 751 mmHg 83%
    22:00 -4°C° 0 mm 4 mps 751 mmHg 84%
    23:00 -4°C° 0 mm 4 mps 751 mmHg 85%
    Show more